Location: Stoke Bliss
(52.2667°N, 2.5167°W)
Time: 14:32:18
(UTC+00:00)

USA 307 - Pass Details

Date: 03 March 2021
Orbit: 567 x 577 km, 54.0° (Epoch: 13 April)

Event Time Altitude Azimuth Distance (km) Brightness Sun altitude
Rises 19:54:32 0° 278° (W) 2,785 8.0 -19.2°
Reaches altitude 10° 19:56:48 10° 280° (W) 1,885 6.8 -19.5°
Maximum altitude 20:01:05 70° 5° (N) 613 3.0 -20.2°
Enters shadow 20:02:01 51° 68° (ENE) 725 3.0 -20.3°
